| time (UTC) | temp C | wind direction | speed KPH | gust KPH | rain 1hr cm | rain 24hr cm | rain mn cm | humidity % | barometer mb |
| 20260504050547 | 17 | 167 | 4.8 | 12.9 | 0.00 | 0.00 | 0.00 | 69 | 1018.2 |
| 20260504050105 | 17 | 157 | 4.8 | 12.9 | 0.00 | 0.00 | 0.00 | 69 | 1018.2 |
| 20260504045546 | 17 | 168 | 4.8 | 14.5 | 0.00 | 0.00 | 0.00 | 68 | 1018.2 |
| 20260504045048 | 17 | 153 | 6.4 | 14.5 | 0.00 | 0.00 | 0.00 | 68 | 1018.2 |
| 20260504044553 | 17 | 167 | 6.4 | 16.1 | 0.00 | 0.00 | 0.00 | 67 | 1018.3 |
| 20260504044048 | 18 | 169 | 6.4 | 19.3 | 0.00 | 0.00 | 0.00 | 66 | 1018.2 |
| 20260504043553 | 18 | 161 | 6.4 | 19.3 | 0.00 | 0.00 | 0.00 | 66 | 1018.4 |
| 20260504043056 | 18 | 153 | 6.4 | 16.1 | 0.00 | 0.00 | 0.00 | 65 | 1018.2 |
| 20260504042550 | 18 | 141 | 4.8 | 16.1 | 0.00 | 0.00 | 0.00 | 65 | 1018.5 |
| 20260504042049 | 18 | 164 | 6.4 | 14.5 | 0.00 | 0.00 | 0.00 | 65 | 1018.5 |
| 20260504041551 | 18 | 146 | 4.8 | 17.7 | 0.00 | 0.00 | 0.00 | 65 | 1018.4 |
| 20260504041050 | 18 | 140 | 6.4 | 17.7 | 0.00 | 0.00 | 0.00 | 64 | 1018.5 |
| 20260504040550 | 18 | 165 | 6.4 | 16.1 | 0.00 | 0.00 | 0.00 | 64 | 1018.4 |
| 20260504035551 | 18 | 129 | 6.4 | 19.3 | 0.00 | 0.00 | 0.00 | 63 | 1018.6 |
| 20260504035053 | 18 | 130 | 4.8 | 14.5 | 0.00 | 0.00 | 0.00 | 63 | 1018.5 |
| 20260504034555 | 18 | 171 | 6.4 | 14.5 | 0.00 | 0.00 | 0.00 | 63 | 1018.4 |
| 20260504034050 | 18 | 133 | 6.4 | 14.5 | 0.00 | 0.00 | 0.00 | 63 | 1018.5 |
| 20260504033549 | 18 | 169 | 4.8 | 12.9 | 0.00 | 0.00 | 0.00 | 63 | 1018.4 |
| 20260504033058 | 18 | 173 | 4.8 | 12.9 | 0.00 | 0.00 | 0.00 | 63 | 1018.5 |
| 20260504032548 | 17 | 161 | 3.2 | 8.0 | 0.00 | 0.00 | 0.00 | 63 | 1018.5 |
| 20260504032053 | 17 | 161 | 1.6 | 6.4 | 0.00 | 0.00 | 0.00 | 63 | 1018.4 |
| 20260504031604 | 17 | 137 | 1.6 | 6.4 | 0.00 | 0.00 | 0.00 | 63 | 1018.2 |
| 20260504031047 | 17 | 136 | 1.6 | 4.8 | 0.00 | 0.00 | 0.00 | 65 | 1018.3 |
| 20260504030550 | 16 | 0 | 0.0 | 1.6 | 0.00 | 0.00 | 0.00 | 67 | 1018.3 |
| 20260504030057 | 17 | 0 | 0.0 | 1.6 | 0.00 | 0.00 | 0.00 | 65 | 1018.4 |
| 20260504025550 | 17 | 0 | 0.0 | 1.6 | 0.00 | 0.00 | 0.00 | 65 | 1018.4 |
| 20260504025050 | 16 | 0 | 0.0 | 0.0 | 0.00 | 0.00 | 0.00 | 65 | 1018.4 |
| 20260504024559 | 16 | 0 | 0.0 | 1.6 | 0.00 | 0.00 | 0.00 | 65 | 1018.2 |
| 20260504024054 | 17 | 0 | 0.0 | 1.6 | 0.00 | 0.00 | 0.00 | 65 | 1018.3 |
| 20260504023550 | 17 | 0 | 0.0 | 1.6 | 0.00 | 0.00 | 0.00 | 65 | 1018.2 |
| 20260504023055 | 16 | 0 | 0.0 | 0.0 | 0.00 | 0.00 | 0.00 | 66 | 1018.2 |
| 20260504022548 | 17 | 0 | 0.0 | 0.0 | 0.00 | 0.00 | 0.00 | 66 | 1018.1 |
| 20260504022051 | 17 | 0 | 0.0 | 0.0 | 0.00 | 0.00 | 0.00 | 64 | 1018.2 |
| 20260504021603 | 16 | 0 | 0.0 | 0.0 | 0.00 | 0.00 | 0.00 | 66 | 1018.2 |
| 20260504021048 | 17 | 0 | 0.0 | 0.0 | 0.00 | 0.00 | 0.00 | 65 | 1018.2 |
| 20260504020550 | 17 | 0 | 0.0 | 0.0 | 0.00 | 0.00 | 0.00 | 65 | 1018.3 |
| 20260504020119 | 17 | 0 | 0.0 | 0.0 | 0.00 | 0.00 | 0.00 | 64 | 1018.3 |
| 20260504015551 | 17 | 0 | 0.0 | 0.0 | 0.00 | 0.00 | 0.00 | 63 | 1018.1 |
| 20260504015051 | 17 | 0 | 0.0 | 0.0 | 0.00 | 0.00 | 0.00 | 62 | 1018.1 |
| 20260504014606 | 17 | 0 | 0.0 | 0.0 | 0.00 | 0.00 | 0.00 | 62 | 1018.0 |
| 20260504014046 | 17 | 0 | 0.0 | 0.0 | 0.00 | 0.00 | 0.00 | 62 | 1018.0 |
| 20260504013547 | 17 | 0 | 0.0 | 0.0 | 0.00 | 0.00 | 0.00 | 61 | 1017.9 |
| 20260504013052 | 18 | 0 | 0.0 | 0.0 | 0.00 | 0.00 | 0.00 | 60 | 1017.9 |
| 20260504012550 | 18 | 0 | 0.0 | 0.0 | 0.00 | 0.00 | 0.00 | 58 | 1017.9 |
| 20260504012048 | 18 | 0 | 0.0 | 0.0 | 0.00 | 0.00 | 0.00 | 58 | 1017.9 |
| 20260504011554 | 19 | 0 | 0.0 | 0.0 | 0.00 | 0.00 | 0.00 | 56 | 1017.9 |
| 20260504011048 | 20 | 0 | 0.0 | 3.2 | 0.00 | 0.00 | 0.00 | 55 | 1017.8 |
| 20260504010547 | 20 | 0 | 0.0 | 3.2 | 0.00 | 0.00 | 0.00 | 53 | 1017.7 |
| 20260504010056 | 20 | 0 | 0.0 | 3.2 | 0.00 | 0.00 | 0.00 | 52 | 1017.6 |
| 20260504005549 | 20 | 0 | 0.0 | 4.8 | 0.00 | 0.00 | 0.00 | 53 | 1017.8 |
| 20260504005048 | 21 | 148 | 0.0 | 6.4 | 0.00 | 0.00 | 0.00 | 49 | 1017.7 |
| 20260504004554 | 21 | 155 | 1.6 | 9.7 | 0.00 | 0.00 | 0.00 | 48 | 1017.8 |
| 20260504004046 | 21 | 167 | 3.2 | 9.7 | 0.00 | 0.00 | 0.00 | 47 | 1017.8 |
| 20260504003547 | 22 | 178 | 4.8 | 12.9 | 0.00 | 0.00 | 0.00 | 46 | 1017.7 |
| 20260504003054 | 22 | 138 | 6.4 | 12.9 | 0.00 | 0.00 | 0.00 | 46 | 1017.8 |
| 20260504002549 | 22 | 176 | 4.8 | 12.9 | 0.00 | 0.00 | 0.00 | 46 | 1017.7 |
| 20260504002048 | 22 | 173 | 3.2 | 11.3 | 0.00 | 0.00 | 0.00 | 47 | 1017.9 |
| 20260504001559 | 22 | 132 | 3.2 | 12.9 | 0.00 | 0.00 | 0.00 | 45 | 1018.0 |
| 20260504001047 | 22 | 144 | 4.8 | 14.5 | 0.00 | 0.00 | 0.00 | 44 | 1018.1 |
| 20260504000547 | 22 | 185 | 6.4 | 14.5 | 0.00 | 0.00 | 0.00 | 43 | 1018.1 |
| 20260504000058 | 22 | 148 | 4.8 | 12.9 | 0.00 | 0.00 | 0.00 | 44 | 1018.1 |
| 20260503235548 | 23 | 161 | 6.4 | 14.5 | 0.00 | 0.00 | 0.00 | 43 | 1018.2 |
| 20260503235048 | 23 | 138 | 4.8 | 14.5 | 0.00 | 0.00 | 0.00 | 43 | 1018.2 |
| 20260503234552 | 23 | 165 | 6.4 | 14.5 | 0.00 | 0.00 | 0.00 | 43 | 1018.2 |
| 20260503234049 | 23 | 148 | 6.4 | 12.9 | 0.00 | 0.00 | 0.00 | 42 | 1018.2 |
| 20260503233548 | 23 | 181 | 6.4 | 14.5 | 0.00 | 0.00 | 0.00 | 42 | 1018.2 |
| 20260503233049 | 23 | 146 | 4.8 | 16.1 | 0.00 | 0.00 | 0.00 | 41 | 1018.2 |
| 20260503232548 | 23 | 174 | 8.0 | 17.7 | 0.00 | 0.00 | 0.00 | 42 | 1018.1 |
| 20260503232047 | 24 | 146 | 6.4 | 17.7 | 0.00 | 0.00 | 0.00 | 40 | 1018.1 |
| 20260503231601 | 23 | 101 | 6.4 | 19.3 | 0.00 | 0.00 | 0.00 | 41 | 1018.1 |
| 20260503231048 | 23 | 166 | 9.7 | 19.3 | 0.00 | 0.00 | 0.00 | 40 | 1018.1 |
| 20260503230548 | 24 | 129 | 6.4 | 16.1 | 0.00 | 0.00 | 0.00 | 39 | 1018.1 |
| 20260503230104 | 24 | 155 | 4.8 | 17.7 | 0.00 | 0.00 | 0.00 | 40 | 1018.2 |
| 20260503225546 | 24 | 166 | 6.4 | 19.3 | 0.00 | 0.00 | 0.00 | 38 | 1018.0 |
| 20260503225048 | 24 | 146 | 9.7 | 19.3 | 0.00 | 0.00 | 0.00 | 38 | 1018.1 |
| 20260503224600 | 24 | 130 | 6.4 | 16.1 | 0.00 | 0.00 | 0.00 | 38 | 1018.2 |
| 20260503224047 | 25 | 169 | 6.4 | 17.7 | 0.00 | 0.00 | 0.00 | 37 | 1018.1 |
| 20260503223617 | 25 | 131 | 9.7 | 19.3 | 0.00 | 0.00 | 0.00 | 40 | 1018.2 |
| 20260503223059 | 24 | 136 | 8.0 | 19.3 | 0.00 | 0.00 | 0.00 | 39 | 1018.4 |
| 20260503222546 | 23 | 104 | 8.0 | 19.3 | 0.00 | 0.00 | 0.00 | 39 | 1018.4 |
| 20260503222048 | 24 | 119 | 8.0 | 19.3 | 0.00 | 0.00 | 0.00 | 37 | 1018.4 |
| 20260503221550 | 25 | 113 | 8.0 | 19.3 | 0.00 | 0.00 | 0.00 | 37 | 1018.6 |
| 20260503221047 | 25 | 144 | 6.4 | 16.1 | 0.00 | 0.00 | 0.00 | 37 | 1018.6 |
| 20260503220548 | 24 | 132 | 8.0 | 16.1 | 0.00 | 0.00 | 0.00 | 39 | 1018.9 |
| 20260503220054 | 24 | 111 | 6.4 | 19.3 | 0.00 | 0.00 | 0.00 | 38 | 1018.9 |
| 20260503215547 | 25 | 135 | 8.0 | 19.3 | 0.00 | 0.00 | 0.00 | 38 | 1018.9 |
| 20260503215047 | 25 | 107 | 9.7 | 19.3 | 0.00 | 0.00 | 0.00 | 38 | 1019.2 |
| 20260503214557 | 25 | 198 | 8.0 | 19.3 | 0.00 | 0.00 | 0.00 | 36 | 1019.3 |
| 20260503214048 | 25 | 162 | 6.4 | 19.3 | 0.00 | 0.00 | 0.00 | 38 | 1019.4 |
| 20260503213547 | 25 | 147 | 9.7 | 19.3 | 0.00 | 0.00 | 0.00 | 38 | 1019.4 |
| 20260503213101 | 25 | 136 | 6.4 | 20.9 | 0.00 | 0.00 | 0.00 | 37 | 1019.4 |
| 20260503212547 | 25 | 190 | 8.0 | 22.5 | 0.00 | 0.00 | 0.00 | 36 | 1019.5 |
| 20260503212047 | 25 | 165 | 9.7 | 22.5 | 0.00 | 0.00 | 0.00 | 38 | 1019.5 |
| 20260503211607 | 25 | 106 | 4.8 | 17.7 | 0.00 | 0.00 | 0.00 | 35 | 1019.6 |
| 20260503211049 | 25 | 137 | 8.0 | 17.7 | 0.00 | 0.00 | 0.00 | 40 | 1019.8 |
| 20260503210547 | 25 | 140 | 6.4 | 20.9 | 0.00 | 0.00 | 0.00 | 39 | 1019.8 |
| 20260503210055 | 25 | 182 | 9.7 | 20.9 | 0.00 | 0.00 | 0.00 | 38 | 1020.0 |
| 20260503205548 | 25 | 166 | 6.4 | 17.7 | 0.00 | 0.00 | 0.00 | 39 | 1020.0 |
| 20260503205048 | 25 | 184 | 6.4 | 19.3 | 0.00 | 0.00 | 0.00 | 43 | 1020.2 |
| 20260503204555 | 25 | 143 | 8.0 | 19.3 | 0.00 | 0.00 | 0.00 | 40 | 1020.3 |
| 20260503204048 | 25 | 229 | 6.4 | 19.3 | 0.00 | 0.00 | 0.00 | 41 | 1020.4 |
| 20260503203547 | 25 | 151 | 6.4 | 17.7 | 0.00 | 0.00 | 0.00 | 40 | 1020.5 |
| 20260503203056 | 24 | 174 | 9.7 | 27.4 | 0.00 | 0.00 | 0.00 | 40 | 1020.7 |
| 20260503202547 | 25 | 105 | 8.0 | 27.4 | 0.00 | 0.00 | 0.00 | 41 | 1020.6 |
| 20260503202049 | 24 | 177 | 4.8 | 19.3 | 0.00 | 0.00 | 0.00 | 38 | 1020.8 |
| 20260503201554 | 25 | 126 | 9.7 | 19.3 | 0.00 | 0.00 | 0.00 | 38 | 1021.1 |
| 20260503201050 | 25 | 162 | 6.4 | 16.1 | 0.00 | 0.00 | 0.00 | 40 | 1020.9 |
| 20260503200547 | 25 | 190 | 4.8 | 19.3 | 0.00 | 0.00 | 0.00 | 41 | 1021.0 |
| 20260503200101 | 25 | 161 | 8.0 | 19.3 | 0.00 | 0.00 | 0.00 | 44 | 1020.8 |
| 20260503195548 | 24 | 192 | 6.4 | 19.3 | 0.00 | 0.00 | 0.00 | 44 | 1021.0 |
| 20260503195048 | 25 | 188 | 4.8 | 19.3 | 0.00 | 0.00 | 0.00 | 40 | 1021.3 |
| 20260503194601 | 24 | 165 | 8.0 | 20.9 | 0.00 | 0.00 | 0.00 | 39 | 1021.3 |
| 20260503194047 | 24 | 139 | 8.0 | 20.9 | 0.00 | 0.00 | 0.00 | 37 | 1021.3 |
| 20260503193547 | 25 | 197 | 9.7 | 27.4 | 0.00 | 0.00 | 0.00 | 39 | 1021.5 |
| 20260503193102 | 24 | 169 | 11.3 | 27.4 | 0.00 | 0.00 | 0.00 | 38 | 1021.4 |
| 20260503192548 | 25 | 102 | 6.4 | 22.5 | 0.00 | 0.00 | 0.00 | 40 | 1021.5 |
| 20260503192048 | 24 | 165 | 9.7 | 22.5 | 0.00 | 0.00 | 0.00 | 42 | 1021.5 |
| 20260503191602 | 24 | 165 | 9.7 | 20.9 | 0.00 | 0.00 | 0.00 | 39 | 1021.5 |
| 20260503191049 | 25 | 172 | 3.2 | 17.7 | 0.00 | 0.00 | 0.00 | 39 | 1021.7 |
| 20260503190547 | 25 | 91 | 6.4 | 17.7 | 0.00 | 0.00 | 0.00 | 36 | 1021.8 |
| 20260503190056 | 24 | 203 | 4.8 | 22.5 | 0.00 | 0.00 | 0.00 | 39 | 1021.8 |
| 20260503185548 | 24 | 173 | 9.7 | 22.5 | 0.00 | 0.00 | 0.00 | 35 | 1021.9 |
| 20260503185047 | 23 | 150 | 4.8 | 19.3 | 0.00 | 0.00 | 0.00 | 35 | 1022.0 |
| 20260503184622 | 24 | 115 | 9.7 | 24.1 | 0.00 | 0.00 | 0.00 | 34 | 1022.2 |
| 20260503184047 | 24 | 221 | 9.7 | 24.1 | 0.00 | 0.00 | 0.00 | 37 | 1022.1 |
| 20260503183549 | 24 | 144 | 6.4 | 16.1 | 0.00 | 0.00 | 0.00 | 35 | 1022.3 |
| 20260503183053 | 23 | 147 | 8.0 | 16.1 | 0.00 | 0.00 | 0.00 | 33 | 1022.3 |
| 20260503182548 | 24 | 143 | 6.4 | 16.1 | 0.00 | 0.00 | 0.00 | 37 | 1022.6 |
| 20260503182048 | 24 | 168 | 8.0 | 16.1 | 0.00 | 0.00 | 0.00 | 35 | 1022.6 |
| 20260503181612 | 24 | 153 | 9.7 | 19.3 | 0.00 | 0.00 | 0.00 | 38 | 1022.7 |
| 20260503181049 | 23 | 151 | 4.8 | 25.7 | 0.00 | 0.00 | 0.00 | 37 | 1022.8 |
| 20260503180547 | 23 | 138 | 9.7 | 25.7 | 0.00 | 0.00 | 0.00 | 35 | 1022.8 |
| 20260503180115 | 24 | 145 | 8.0 | 16.1 | 0.00 | 0.00 | 0.00 | 36 | 1022.9 |
| 20260503175548 | 23 | 188 | 8.0 | 16.1 | 0.00 | 0.00 | 0.00 | 36 | 1023.0 |
| 20260503175047 | 23 | 101 | 8.0 | 17.7 | 0.00 | 0.00 | 0.00 | 35 | 1023.1 |
| 20260503174557 | 23 | 178 | 8.0 | 17.7 | 0.00 | 0.00 | 0.00 | 37 | 1023.2 |
| 20260503174047 | 23 | 144 | 4.8 | 14.5 | 0.00 | 0.00 | 0.00 | 38 | 1023.3 |
| 20260503173547 | 23 | 167 | 6.4 | 22.5 | 0.00 | 0.00 | 0.00 | 35 | 1023.4 |
| 20260503173107 | 23 | 171 | 6.4 | 22.5 | 0.00 | 0.00 | 0.00 | 39 | 1023.5 |
| 20260503172549 | 23 | 145 | 6.4 | 24.1 | 0.00 | 0.00 | 0.00 | 41 | 1023.5 |
| 20260503172048 | 23 | 140 | 8.0 | 24.1 | 0.00 | 0.00 | 0.00 | 39 | 1023.6 |
| 20260503171555 | 23 | 148 | 6.4 | 24.1 | 0.00 | 0.00 | 0.00 | 40 | 1023.6 |
| 20260503171048 | 23 | 171 | 3.2 | 17.7 | 0.00 | 0.00 | 0.00 | 42 | 1023.6 |
| 20260503170548 | 23 | 119 | 11.3 | 17.7 | 0.00 | 0.00 | 0.00 | 40 | 1023.7 |
| 20260503150545 | 20 | 232 | 4.8 | 12.9 | 0.00 | 0.00 | 0.00 | 58 | 1024.4 |
| 20260503150104 | 20 | 206 | 3.2 | 12.9 | 0.00 | 0.00 | 0.00 | 62 | 1024.4 |
| 20260503131046 | 11 | 0 | 0.0 | 0.0 | 0.00 | 0.03 | 0.00 | 94 | 1023.6 |
| 20260503130550 | 11 | 0 | 0.0 | 0.0 | 0.00 | 0.03 | 0.00 | 95 | 1023.5 |
| 20260503110548 | 7 | 0 | 0.0 | 0.0 | 0.00 | 0.03 | 0.00 | 94 | 1022.7 |
| 20260503081557 | 8 | 0 | 0.0 | 0.0 | 0.00 | 0.03 | 0.00 | 92 | 1022.3 |
| 20260503081048 | 8 | 0 | 0.0 | 0.0 | 0.00 | 0.03 | 0.00 | 92 | 1022.2 |
| 20260503080549 | 8 | 0 | 0.0 | 0.0 | 0.00 | 0.03 | 0.00 | 91 | 1022.2 |
| 20260503080106 | 8 | 0 | 0.0 | 0.0 | 0.00 | 0.03 | 0.00 | 91 | 1022.2 |
| 20260503072549 | 9 | 0 | 0.0 | 0.0 | 0.00 | 0.03 | 0.00 | 91 | 1022.6 |
| 20260503072046 | 9 | 0 | 0.0 | 0.0 | 0.00 | 0.03 | 0.00 | 90 | 1022.6 |
| 20260503071602 | 9 | 0 | 0.0 | 0.0 | 0.00 | 0.03 | 0.00 | 90 | 1022.7 |
| 20260503071050 | 10 | 0 | 0.0 | 0.0 | 0.00 | 0.03 | 0.00 | 90 | 1022.8 |
| 20260503070546 | 10 | 0 | 0.0 | 0.0 | 0.00 | 0.03 | 0.00 | 90 | 1022.8 |
| 20260503070110 | 10 | 0 | 0.0 | 0.0 | 0.00 | 0.03 | 0.00 | 90 | 1022.8 |
| 20260503055051 | 10 | 0 | 0.0 | 0.0 | 0.00 | 0.03 | 0.00 | 90 | 1022.9 |
| 20260503054552 | 10 | 0 | 0.0 | 0.0 | 0.00 | 0.03 | 0.00 | 90 | 1022.8 |
| 20260503054046 | 10 | 0 | 0.0 | 0.0 | 0.00 | 0.03 | 0.00 | 90 | 1022.8 |
| 20260503053548 | 10 | 0 | 0.0 | 0.0 | 0.00 | 0.03 | 0.00 | 90 | 1022.8 |
| 20260503053049 | 10 | 0 | 0.0 | 0.0 | 0.00 | 0.03 | 0.00 | 89 | 1022.8 |
| 20260503052547 | 10 | 0 | 0.0 | 0.0 | 0.00 | 0.03 | 0.00 | 89 | 1022.9 |
| 20260503052048 | 10 | 0 | 0.0 | 0.0 | 0.00 | 0.03 | 0.00 | 89 | 1022.9 |
| 20260503051549 | 10 | 0 | 0.0 | 0.0 | 0.00 | 0.03 | 0.00 | 89 | 1022.8 |
| 20260503051047 | 10 | 0 | 0.0 | 0.0 | 0.00 | 0.03 | 0.00 | 89 | 1022.8 |